This is the latest recevied weather packets stored in our database for station/object WX5HOT. If no packets are shown the sender has not sent any weather packets the latest 10 day(s).
| Time | Temp. | Humidity | Pressure | Rain* | Wind** | Luminosity | Snow |
|---|---|---|---|---|---|---|---|
| 1777934516 | 21.11° C | 57% | 1059.6 hPa | 0 mm | - | 197 W/m² | - |
| 1777934213 | 21.11° C | 56% | 1059.5 hPa | 0 mm | - | 193 W/m² | - |
| 1777933908 | 21.11° C | 57% | 1059.6 hPa | 0 mm | - | 247 W/m² | - |
| 1777933606 | 21.11° C | 57% | 1059.7 hPa | 0 mm | - | 209 W/m² | - |
| 1777933302 | 21.67° C | 54% | 1059.9 hPa | 0 mm | - | 285 W/m² | - |
| 1777933000 | 21.67° C | 54% | 1059.7 hPa | 0 mm | - | 284 W/m² | - |
| 1777932697 | 21.67° C | 55% | 1059.8 hPa | 0 mm | - | 356 W/m² | - |
| 1777932393 | 22.22° C | 52% | 1059.6 hPa | 0 mm | - | 384 W/m² | - |
| 1777932091 | 22.22° C | 54% | 1059.9 hPa | 0 mm | - | 444 W/m² | - |
| 1777931787 | 21.67° C | 53% | 1059.9 hPa | 0 mm | - | 454 W/m² | - |
| 1777931485 | 21.67° C | 52% | 1060.2 hPa | 0 mm | - | 483 W/m² | - |
| 1777931180 | 22.22° C | 52% | 1060.1 hPa | 0 mm | - | 441 W/m² | - |
| 1777930877 | 22.22° C | 53% | 1060.2 hPa | 0 mm | - | 530 W/m² | - |
| 1777930573 | 21.67° C | 55% | 1060.5 hPa | 0 mm | - | 477 W/m² | - |
| 1777930270 | 21.67° C | 52% | 1060.5 hPa | 0 mm | - | 534 W/m² | - |
| 1777929966 | 21.67° C | 54% | 1060.4 hPa | 0 mm | - | 533 W/m² | - |
| 1777929663 | 21.67° C | 54% | 1060.4 hPa | 0 mm | - | 549 W/m² | - |
| 1777929361 | 21.67° C | 52% | 1060.7 hPa | 0 mm | - | 440 W/m² | - |
| 1777929057 | 21.67° C | 53% | 1060.5 hPa | 0 mm | - | 528 W/m² | - |
| 1777928755 | 21.11° C | 54% | 1060.8 hPa | 0 mm | - | 572 W/m² | - |
| 1777928451 | 21.11° C | 53% | 1060.9 hPa | 0 mm | - | 539 W/m² | - |
| 1777928149 | 21.11° C | 55% | 1060.9 hPa | 0 mm | - | 421 W/m² | - |
| 1777927847 | 21.11° C | 53% | 1061.1 hPa | 0 mm | - | 467 W/m² | - |
| 1777927544 | 21.11° C | 53% | 1060.9 hPa | 0 mm | - | 511 W/m² | - |
| 1777927243 | 21.67° C | 52% | 1061.3 hPa | 0 mm | - | 525 W/m² | - |
* Rain latest hour (hover to see other rain measurements)
** Current wind speed in m/s (hover to see current wind gust speed)